Homer, AK

4:06 AM AKST on February 27, 2017 (GMT -0900)
Homer

Weather History for PAHO - September, 2013

Change the Weather History Date:

Friday, September 6, 2013

  Actual Average Record
Temperature  
Mean Temperature 56 °F -  
Max Temperature 62 °F 57 °F 67 °F (1964)
Min Temperature 51 °F 41 °F 28 °F (1960)
Degree Days  
Heating Degree Days 9    
Growing Degree Days 6 (Base 50)    
Moisture  
Dew Point 45 °F    
Average Humidity 69    
Maximum Humidity 80    
Minimum Humidity 57    
Precipitation  
Precipitation 0.26 in - - ()
Sea Level Pressure  
Sea Level Pressure 29.52 in    
Wind  
Wind Speed 8 mph (NE)    
Max Wind Speed 22 mph    
Max Gust Speed 33 mph    
Visibility 10 miles    
Events Rain    
Averages and records for this station are not official NWS values.
T = Trace of Precipitation, MM = Missing Value Source: NWS Daily Summary

Daily Weather History Graph

Daily Weather History Graph

Search for Another Location

Airport or City:

Trip Planner

Search our weather history database for the weather conditions in past years. The results will help you decide how hot, cold, wet, or windy it might be!

Date:

Astronomy

Sep. 06, 2013 Rise Set
Actual Time 7:14 AM AKDT 8:52 PM AKDT
Civil Twilight 6:31 AM AKDT 9:35 PM AKDT
Nautical Twilight 5:36 AM AKDT 10:29 PM AKDT
Astronomical Twilight 4:30 AM AKDT 11:33 PM AKDT
Moon 9:11 AM AKDT (9/6) 8:41 PM AKDT (9/6)
Length of Visible Light 15h 03m
Length of Day
13h 37m
New Moon, 2% of the Moon is Illuminated
Sep 6
New Moon
Sep 12
First Quarter
Sep 19
Full
Sep 26
Last Quarter
Oct 4
New

Hourly Weather History & Observations

Time (AKDT) Temp. Dew Point Humidity Pressure Visibility Wind Dir Wind Speed Gust Speed Precip Events Conditions
12:53 AM 51.1 °F 41.0 °F 68% 29.95 in 10.0 mi Calm Calm - N/A   Clear
1:53 AM 52.0 °F 39.0 °F 61% 29.93 in 10.0 mi NE 4.6 mph - N/A   Clear
2:53 AM 53.1 °F 39.0 °F 59% 29.88 in 10.0 mi NE 6.9 mph - N/A   Clear
3:53 AM 54.0 °F 39.0 °F 57% 29.83 in 10.0 mi NE 8.1 mph - N/A   Mostly Cloudy
4:53 AM 54.0 °F 39.0 °F 57% 29.79 in 10.0 mi ENE 8.1 mph - N/A   Overcast
5:53 AM 54.0 °F 39.9 °F 59% 29.74 in 10.0 mi NE 9.2 mph - N/A   Overcast
6:53 AM 53.1 °F 43.0 °F 69% 29.65 in 10.0 mi NE 10.4 mph 18.4 mph 0.01 in Rain Light Rain
7:53 AM 52.0 °F 43.0 °F 71% 29.58 in 10.0 mi NNE 21.9 mph 33.4 mph 0.02 in Rain Light Rain
8:53 AM 52.0 °F 45.0 °F 77% 29.53 in 10.0 mi NE 12.7 mph 20.7 mph 0.05 in   Overcast
9:53 AM 52.0 °F 46.0 °F 80% 29.49 in 7.0 mi ENE 10.4 mph - 0.03 in Rain Rain
10:53 AM 53.1 °F 46.9 °F 80% 29.46 in 10.0 mi ENE 13.8 mph 19.6 mph 0.03 in Rain Light Rain
11:53 AM 54.0 °F 48.0 °F 80% 29.45 in 10.0 mi ENE 9.2 mph - 0.02 in Rain Light Rain
12:53 PM 55.9 °F 48.9 °F 77% 29.42 in 10.0 mi ENE 12.7 mph - 0.00 in   Overcast
1:53 PM 55.9 °F 48.9 °F 77% 29.40 in 10.0 mi ENE 11.5 mph - 0.00 in   Overcast
2:53 PM 61.0 °F 51.1 °F 70% 29.37 in 10.0 mi ENE 13.8 mph 21.9 mph 0.00 in   Mostly Cloudy
3:53 PM 61.0 °F 50.0 °F 67% 29.38 in 10.0 mi East 12.7 mph - N/A   Mostly Cloudy
4:53 PM 61.0 °F 48.9 °F 64% 29.36 in 10.0 mi ENE 10.4 mph - N/A   Mostly Cloudy
5:53 PM 59.0 °F 46.9 °F 64% 29.36 in 10.0 mi ESE 5.8 mph - N/A   Overcast
6:53 PM 57.9 °F 46.9 °F 67% 29.33 in 10.0 mi Calm Calm - N/A   Overcast
7:53 PM 57.0 °F 46.9 °F 69% 29.33 in 9.0 mi ENE 6.9 mph - 0.00 in Rain Light Rain
8:53 PM 55.9 °F 46.0 °F 69% 29.31 in 10.0 mi NE 11.5 mph - 0.02 in Rain Light Rain
9:53 PM 55.9 °F 46.0 °F 69% 29.31 in 10.0 mi NNE 10.4 mph - 0.01 in   Overcast
10:53 PM 55.9 °F 46.0 °F 69% 29.33 in 10.0 mi North 9.2 mph - 0.02 in Rain Light Rain
11:53 PM 55.0 °F 46.0 °F 72% 29.36 in 9.0 mi North 15.0 mph 21.9 mph 0.05 in Rain Light Rain